Flag for Paraguay Weather past 2 weeks in Asuncion, Paraguay

Now
73 °F

Clear.


Feels Like: 73 °F
Forecast: 68 / 84 °F
Wind: 6 mph from Southeast

Location: Asuncion / Aeropuerto

Current Time: Apr 27, 2015 at 11:13:57 PM

Latest Report: Apr 27, 2015 at 11:00 PM


Visibility: 4 mi

Pressure: 29.98 "Hg

Humidity: 83%

Dew point: 68 °F

Location of AsuncionLocation

Historic Weather in Asuncion — Graph

°F

Asuncion temperature yesterday

Maximum temperature yesterday: 86 °F (at 2:00 PM)
Minimum temperature yesterday: 61 °F (at 3:00 AM)
Average temperature yesterday: 72 °F

Past Weeks' High & Low Weather Summary

 TemperatureHumidityPressure
High88 °F (Apr 16, 1:00 PM)100% (Apr 14, 8:30 AM)30.15 "Hg (Apr 14, 8:30 AM)
Low61 °F (Apr 23, 3:00 AM)40% (Apr 25, 2:00 PM)29.71 "Hg (Apr 20, 4:00 AM)
Average74 °F82%29.93 "Hg
* Reported Apr 12 10:00 PM — Apr 27 10:00 PM, Asuncion, Weather by CustomWeather, © 2015

Note: Actual official high and low records may vary slightly from our data, if they occured in-between our weather recording intervals... More about our weather records

Advertising

Asuncion weather history for previous 24 hours

 ConditionsComfort  
Time TempWeatherWind HumidityBarometerVisibility
10:00 PM
Mon, Apr 27
73 °FClear.2 mph89%29.98 "Hg4 mi
9:00 PM73 °FClear.6 mph89%29.95 "Hg4 mi
8:00 PM75 °FClear.6 mph78%29.95 "Hg4 mi
7:00 PM75 °FClear.5 mph83%29.92 "Hg4 mi
6:00 PM77 °FClear.5 mph79%29.92 "Hg5 mi
5:00 PM81 °FClear.3 mph70%29.92 "Hg10 mi
4:00 PM82 °FSunny.No wind66%29.92 "Hg10 mi
3:00 PM84 °FSunny.No wind58%29.92 "Hg10 mi
2:00 PM86 °FSunny.2 mph52%29.92 "Hg10 mi
1:00 PM84 °FPassing clouds.5 mph55%29.95 "HgN/A
12:00 PM82 °FSunny.9 mph55%29.95 "Hg10 mi
11:00 AM84 °FPassing clouds.9 mph51%29.98 "HgN/A
10:00 AM81 °FPassing clouds.7 mph58%30.01 "HgN/A
9:30 AM79 °FSunny.8 mph61%30.01 "Hg10 mi
9:00 AM79 °FPassing clouds.6 mph65%29.98 "HgN/A
8:30 AM77 °FSunny.7 mph65%29.98 "Hg10 mi
8:00 AM75 °FPassing clouds.8 mph69%29.98 "HgN/A
7:30 AM73 °FSunny.5 mph74%29.98 "Hg10 mi
7:00 AM72 °FSunny.2 mph78%29.98 "Hg10 mi
6:00 AM70 °FSunny.2 mph83%29.98 "Hg10 mi
5:00 AM70 °FClear.2 mph83%29.95 "Hg10 mi
4:00 AM70 °FClear.2 mph83%29.95 "Hg10 mi
3:00 AM70 °FClear.3 mph83%29.95 "Hg10 mi
2:00 AM72 °FClear.3 mph78%29.95 "Hg10 mi
1:00 AM72 °FClear.3 mph78%29.98 "Hg10 mi
12:00 AM68 °FClear.2 mph88%29.98 "Hg10 mi
11:00 PM
Sun, Apr 26
70 °FClear.2 mph88%29.98 "Hg10 mi
Weather by CustomWeather, © 2015

See weather overviewHow to use our weather pages